Location: Tafessasset
(32.5899°N, 5.4824°W)
Time: 19:37:06
(UTC+00:00)

Helios 1A Rocket - Pass Details

Date: 18 February 2020
Orbit: 563 x 588 km, 98.3° (Epoch: 07 April)

Event Time Altitude Azimuth Distance (km) Brightness Sun altitude
Rises 06:10:22 0° 14° (NNE) 2,818 6.5 -11.6°
Reaches altitude 10° 06:12:33 10° 17° (NNE) 1,911 5.7 -11.2°
Maximum altitude 06:16:41 73° 101° (ESE) 612 3.2 -10.3°
Drops below altitude 10° 06:20:46 10° 187° (S) 1,886 5.6 -9.5°
Sets 06:22:54 0° 189° (S) 2,777 6.4 -9.0°
